Location: Ammerl�gen
(47.2167°N, 9.6000°E)
Time: 04:31:10
(UTC+00:00)

Envisat - Pass Details

Date: 07 October 2021
Orbit: 764 x 766 km, 98.2° (Epoch: 26 October)

Event Time Altitude Azimuth Distance (km) Brightness Sun altitude
Rises 04:49:13 0° 12° (NNE) 3,243 6.4 -7.5°
Reaches altitude 10° 04:51:32 10° 11° (N) 2,312 5.6 -7.1°
Maximum altitude 04:56:37 76° 287° (WNW) 793 3.0 -6.3°
Drops below altitude 10° 05:01:40 10° 202° (SSW) 2,295 5.3 -5.4°
Sets 05:03:58 0° 201° (SSW) 3,216 6.0 -5.0°
